GW5366 Weather Reports


Display with metric or nautical units.
time (UTC)temp
F
wind
direction
speed
MPH
gust
MPH
rain 1hr
in
rain 24hr
in
rain mn
in
humidity
%
barometer
mb
20260507151518 61 358 1.0 2.0 0.00 0.00 0.00 86 1017.1
20260507151016 61 318 2.0 5.0 0.00 0.00 0.00 86 1017.0
20260507150512 61 240 0.0 2.0 0.00 0.00 0.00 86 1016.9
20260507150009 61 218 2.0 2.0 0.00 0.00 0.00 87 1016.9
20260507145504 61 235 0.0 3.0 0.00 0.00 0.00 86 1016.9
20260507145002 61 79 1.0 2.0 0.00 0.00 0.00 87 1016.8
20260507144458 61 8 0.0 2.0 0.00 0.00 0.00 88 1016.8
20260507143955 61 14 1.0 4.0 0.00 0.00 0.00 87 1017.0
20260507143453 61 290 2.0 5.0 0.00 0.00 0.00 88 1016.8
20260507142949 61 336 2.0 3.0 0.00 0.00 0.00 88 1016.8
20260507142445 60 212 0.0 3.0 0.00 0.00 0.00 88 1016.7
20260507141943 61 257 3.0 4.0 0.00 0.00 0.00 88 1016.6
20260507141438 61 54 0.0 2.0 0.00 0.00 0.00 88 1016.5
20260507140935 60 286 1.0 2.0 0.00 0.00 0.00 88 1016.8
20260507140432 60 89 0.0 2.0 0.00 0.00 0.00 89 1016.5
20260507135930 60 60 0.0 1.0 0.00 0.00 0.00 89 1016.5
20260507135426 60 83 0.0 2.0 0.00 0.00 0.00 89 1016.6
20260507134924 60 46 1.0 1.0 0.00 0.00 0.00 89 1016.5
20260507134420 60 65 0.0 1.0 0.00 0.00 0.00 89 1016.5
20260507133916 60 110 0.0 2.0 0.00 0.00 0.00 90 1016.3
20260507133412 59 320 2.0 2.0 0.00 0.00 0.00 90 1016.4
20260507132911 59 296 2.0 3.0 0.00 0.00 0.00 90 1016.4
20260507132407 59 89 0.0 2.0 0.00 0.00 0.00 89 1016.5
20260507131905 59 14 2.0 2.0 0.00 0.00 0.00 90 1016.3
20260507131400 59 230 0.0 1.0 0.00 0.00 0.00 90 1016.4
20260507130858 60 119 0.0 1.0 0.00 0.00 0.00 90 1016.4
20260507130354 59 321 2.0 3.0 0.00 0.00 0.00 90 1016.2
20260507125853 59 87 3.0 4.0 0.00 0.00 0.00 91 1016.3
20260507125350 59 81 0.0 3.0 0.00 0.00 0.00 91 1016.2
20260507124848 59 199 1.0 2.0 0.00 0.00 0.00 91 1016.2
20260507124344 59 312 0.0 2.0 0.00 0.00 0.00 91 1016.3
20260507123843 59 89 0.0 0.0 0.00 0.00 0.00 91 1016.2
20260507123339 58 147 0.0 0.0 0.00 0.00 0.00 91 1016.1
20260507122836 58 68 0.0 2.0 0.00 0.00 0.00 91 1016.0
20260507122331 59 105 1.0 2.0 0.00 0.00 0.00 91 1016.1
20260507121828 59 325 1.0 1.0 0.00 0.00 0.00 90 1016.2
20260507121323 59 279 0.0 1.0 0.00 0.00 0.00 91 1016.3
20260507120820 59 228 0.0 2.0 0.00 0.00 0.00 91 1016.0
20260507120316 59 0 0.0 1.0 0.00 0.00 0.00 91 1016.0
20260507115812 59 299 0.0 1.0 0.00 0.00 0.00 91 1016.1
20260507115308 59 309 3.0 3.0 0.00 0.00 0.00 92 1015.9
20260507114804 59 322 0.0 4.0 0.00 0.00 0.00 92 1016.0
20260507114302 59 313 0.0 1.0 0.00 0.00 0.00 91 1016.0
20260507113759 59 9 0.0 2.0 0.00 0.00 0.00 92 1016.0
20260507113256 59 55 0.0 0.0 0.00 0.00 0.00 92 1016.1
20260507112753 59 4 1.0 1.0 0.00 0.00 0.00 92 1016.1
20260507112250 58 89 0.0 1.0 0.00 0.00 0.00 92 1016.0
20260507111748 59 103 0.0 2.0 0.00 0.00 0.00 93 1016.2
20260507111244 58 332 1.0 2.0 0.00 0.00 0.00 92 1016.1
20260507110740 58 299 0.0 1.0 0.00 0.00 0.00 92 1016.2
20260507110237 59 75 0.0 2.0 0.00 0.00 0.00 93 1016.2
20260507105734 58 2 0.0 2.0 0.00 0.00 0.00 93 1016.2
20260507105230 58 242 0.0 0.0 0.00 0.00 0.00 92 1016.2
20260507104727 58 66 0.0 1.0 0.00 0.00 0.00 93 1016.1
20260507104224 57 89 1.0 1.0 0.00 0.00 0.00 93 1016.2
20260507103720 57 99 0.0 1.0 0.00 0.00 0.00 93 1016.3
20260507103216 58 96 1.0 1.0 0.00 0.00 0.00 93 1016.4
20260507102713 58 87 1.0 1.0 0.00 0.00 0.00 93 1016.3
20260507102209 58 89 1.0 1.0 0.00 0.00 0.00 93 1016.4
20260507101706 58 85 1.0 1.0 0.00 0.00 0.00 93 1016.3
20260507101201 57 113 0.0 1.0 0.00 0.00 0.00 93 1016.5
20260507100658 57 116 2.0 2.0 0.00 0.00 0.00 93 1016.5
20260507100157 57 103 0.0 1.0 0.00 0.00 0.00 93 1016.8
20260507095654 57 103 0.0 1.0 0.00 0.00 0.00 93 1016.5
20260507095151 57 113 0.0 1.0 0.00 0.00 0.00 93 1016.6
20260507094647 57 99 0.0 1.0 0.00 0.00 0.00 92 1016.5
20260507094144 57 98 0.0 1.0 0.00 0.00 0.00 93 1016.6
20260507093642 57 102 0.0 1.0 0.00 0.00 0.00 92 1016.8
20260507093141 56 84 0.0 1.0 0.00 0.00 0.00 92 1016.9
20260507092637 57 89 0.0 1.0 0.00 0.00 0.00 92 1016.6
20260507092133 56 121 2.0 2.0 0.00 0.00 0.00 92 1016.6
20260507091630 56 107 0.0 1.0 0.00 0.00 0.00 92 1016.9
20260507091126 56 120 1.0 2.0 0.00 0.00 0.00 91 1016.8
20260507090621 56 73 0.0 1.0 0.00 0.00 0.00 91 1016.8
20260507090119 57 104 0.0 1.0 0.00 0.00 0.00 91 1016.9
20260507085616 57 82 0.0 2.0 0.00 0.00 0.00 91 1017.1
20260507085112 57 89 0.0 1.0 0.00 0.00 0.00 91 1017.2
20260507084609 58 107 0.0 2.0 0.00 0.00 0.00 91 1017.1
20260507084106 59 89 0.0 2.0 0.00 0.00 0.00 91 1017.3
20260507083603 58 116 2.0 2.0 0.00 0.00 0.00 91 1017.2
20260507083100 59 101 0.0 1.0 0.00 0.00 0.00 91 1017.0
20260507082555 59 126 0.0 1.0 0.00 0.00 0.00 91 1017.2
20260507082052 59 89 0.0 1.0 0.00 0.00 0.00 91 1017.2
20260507081548 59 63 0.0 1.0 0.00 0.00 0.00 91 1017.3
20260507081046 59 102 0.0 1.0 0.00 0.00 0.00 91 1017.3
20260507080541 59 79 1.0 2.0 0.00 0.00 0.00 91 1017.5
20260507080038 59 66 0.0 2.0 0.00 0.00 0.00 91 1017.4
20260507075533 59 0 0.0 1.0 0.00 0.00 0.00 91 1017.5
20260507075030 59 357 2.0 2.0 0.00 0.00 0.00 91 1017.4
20260507074526 59 62 0.0 1.0 0.00 0.00 0.00 91 1017.3
20260507074025 59 350 0.0 4.0 0.00 0.00 0.00 92 1017.3
20260507073521 59 14 1.0 2.0 0.00 0.00 0.00 91 1017.7
20260507073018 59 60 0.0 2.0 0.00 0.00 0.00 91 1017.5
20260507072515 59 66 0.0 2.0 0.00 0.00 0.00 91 1017.6
20260507072012 59 29 0.0 2.0 0.00 0.00 0.00 91 1017.6
20260507071509 59 100 0.0 1.0 0.00 0.00 0.00 91 1017.5
20260507071006 59 66 0.0 1.0 0.00 0.00 0.00 91 1017.5
20260507070503 59 86 2.0 2.0 0.00 0.00 0.00 91 1017.6
20260507070000 59 45 0.0 1.0 0.00 0.00 0.00 91 1017.6
20260507065456 59 55 0.0 1.0 0.00 0.00 0.00 91 1017.8
20260507064954 59 104 0.0 2.0 0.00 0.00 0.00 91 1017.7
20260507064452 59 79 0.0 1.0 0.00 0.00 0.00 92 1017.6
20260507063949 59 11 0.0 1.0 0.00 0.00 0.00 92 1017.7
20260507063446 59 39 0.0 2.0 0.00 0.00 0.00 92 1017.9
20260507062943 59 145 0.0 1.0 0.00 0.00 0.00 91 1017.8
20260507062440 59 71 1.0 2.0 0.00 0.00 0.00 91 1018.0
20260507061937 59 89 0.0 1.0 0.00 0.00 0.00 91 1017.8
20260507061436 59 102 0.0 2.0 0.00 0.00 0.00 90 1018.0
20260507060934 59 128 1.0 1.0 0.00 0.00 0.00 90 1017.6
20260507060430 59 109 0.0 1.0 0.00 0.00 0.00 90 1017.8
20260507055927 59 112 1.0 1.0 0.00 0.00 0.00 90 1017.8
20260507055422 59 83 0.0 1.0 0.00 0.00 0.00 90 1018.0
20260507054919 60 68 0.0 1.0 0.00 0.00 0.00 90 1017.8
20260507054415 60 89 0.0 0.0 0.00 0.00 0.00 90 1017.9
20260507053913 60 4 0.0 2.0 0.00 0.00 0.00 90 1017.6
20260507053410 60 344 2.0 3.0 0.00 0.00 0.00 90 1017.9
20260507052909 60 321 2.0 3.0 0.00 0.00 0.00 90 1017.8
20260507052406 60 21 0.0 3.0 0.00 0.00 0.00 90 1017.7
20260507051903 60 350 2.0 4.0 0.00 0.00 0.00 90 1017.8
20260507051401 60 4 2.0 2.0 0.00 0.00 0.00 90 1017.8
20260507050857 60 302 3.0 3.0 0.00 0.00 0.00 90 1017.7
20260507050354 60 89 0.0 1.0 0.00 0.00 0.00 90 1017.7
20260507045851 60 89 0.0 1.0 0.00 0.00 0.00 90 1017.7
20260507045347 60 0 0.0 1.0 0.00 0.00 0.00 89 1017.7
20260507044845 60 113 0.0 1.0 0.00 0.00 0.00 89 1017.7
20260507044341 60 32 0.0 2.0 0.00 0.00 0.00 89 1017.6
20260507043837 60 356 2.0 4.0 0.00 0.00 0.00 89 1017.7
20260507043334 60 14 0.0 4.0 0.00 0.00 0.00 89 1017.6
20260507042830 60 0 2.0 2.0 0.00 0.00 0.00 89 1017.4
20260507042325 61 25 0.0 2.0 0.00 0.00 0.00 89 1017.5
20260507041823 61 12 1.0 2.0 0.00 0.00 0.00 89 1017.4
20260507041319 61 299 2.0 3.0 0.00 0.00 0.00 89 1017.6
20260507040816 61 336 0.0 2.0 0.00 0.00 0.00 89 1017.3
20260507040312 61 357 1.0 1.0 0.00 0.00 0.00 88 1017.3
20260507035808 61 38 0.0 1.0 0.00 0.00 0.00 88 1017.5
20260507035306 61 44 0.0 2.0 0.00 0.00 0.00 88 1017.5
20260507034802 61 52 1.0 2.0 0.00 0.00 0.00 88 1017.4
20260507034258 61 349 2.0 2.0 0.00 0.00 0.00 87 1017.2
20260507033757 61 68 2.0 2.0 0.00 0.00 0.00 87 1017.2
20260507033254 61 22 0.0 2.0 0.00 0.00 0.00 87 1017.1
20260507032751 61 3 0.0 2.0 0.00 0.00 0.00 87 1017.4
20260507032247 61 338 2.0 2.0 0.00 0.00 0.00 87 1017.3
20260507031743 61 271 2.0 3.0 0.00 0.00 0.00 86 1017.3
20260507031241 61 260 3.0 4.0 0.00 0.00 0.00 86 1016.9
20260507030737 61 17 3.0 3.0 0.00 0.00 0.00 86 1017.1
20260507030235 61 342 4.0 6.0 0.00 0.00 0.00 86 1016.9
20260507025732 61 338 2.0 3.0 0.00 0.00 0.00 86 1017.1
20260507025229 61 325 2.0 4.0 0.00 0.00 0.00 85 1016.9
20260507024727 62 351 2.0 4.0 0.00 0.00 0.00 85 1016.9
20260507024224 62 354 2.0 5.0 0.00 0.00 0.00 85 1016.8
20260507023719 62 350 2.0 3.0 0.00 0.00 0.00 84 1016.8
20260507023216 62 28 0.0 6.0 0.00 0.00 0.00 83 1016.6
20260507022714 62 178 1.0 3.0 0.00 0.00 0.00 83 1016.9
20260507022210 63 74 0.0 3.0 0.00 0.00 0.00 82 1016.9
20260507021706 63 14 1.0 9.0 0.00 0.00 0.00 81 1016.7
20260507021201 63 46 0.0 4.0 0.00 0.00 0.00 80 1016.8
20260507020701 64 338 2.0 4.0 0.00 0.00 0.00 80 1016.9
20260507020156 64 268 0.0 4.0 0.00 0.00 0.00 79 1016.8
20260507015654 65 16 2.0 6.0 0.00 0.00 0.00 78 1016.8
20260507015151 66 327 4.0 5.0 0.00 0.00 0.00 77 1016.6
20260507014648 66 34 1.0 6.0 0.00 0.00 0.00 77 1016.6
20260507014144 66 20 1.0 3.0 0.00 0.00 0.00 77 1016.8
20260507013641 66 250 1.0 4.0 0.00 0.00 0.00 77 1016.8
20260507013138 66 236 3.0 9.0 0.00 0.00 0.00 76 1016.7
20260507012635 66 310 1.0 7.0 0.00 0.00 0.00 77 1016.6
20260507012130 66 312 7.0 10.0 0.00 0.00 0.00 78 1016.4
20260507011629 65 43 1.0 7.0 0.00 0.00 0.00 78 1016.7
20260507011125 66 327 3.0 5.0 0.00 0.00 0.00 79 1016.4
20260507010620 64 317 4.0 6.0 0.00 0.00 0.00 79 1016.5
20260507010116 65 347 2.0 5.0 0.00 0.00 0.00 78 1016.6
20260507005614 66 219 4.0 6.0 0.00 0.00 0.00 76 1016.5
20260507005109 66 329 2.0 5.0 0.00 0.00 0.00 77 1016.5
20260507004607 66 336 2.0 5.0 0.00 0.00 0.00 77 1016.7
20260507004104 66 242 4.0 6.0 0.00 0.00 0.00 78 1016.5
20260507003600 65 261 4.0 11.0 0.00 0.00 0.00 78 1016.6
20260507003055 66 19 2.0 13.0 0.00 0.00 0.00 77 1016.7
20260507002552 67 247 0.0 6.0 0.00 0.00 0.00 74 1016.5
20260507002047 66 338 2.0 8.0 0.00 0.00 0.00 76 1016.3
20260507001544 66 278 5.0 10.0 0.00 0.00 0.00 75 1016.4
20260507001042 68 261 3.0 6.0 0.00 0.00 0.00 72 1016.3
20260507000538 69 11 2.0 4.0 0.00 0.00 0.00 71 1016.4
20260507000033 69 82 2.0 7.0 0.00 0.00 0.00 71 1016.2
20260506235531 69 346 0.0 4.0 0.00 0.00 0.00 71 1016.4
20260506235021 68 200 1.0 5.0 0.00 0.00 0.00 73 1016.5
20260506234519 66 9 2.0 7.0 0.00 0.00 0.00 76 1016.4
20260506234016 67 230 2.0 6.0 0.00 0.00 0.00 74 1016.3
20260506233512 68 352 3.0 6.0 0.00 0.00 0.00 73 1016.4
20260506233009 68 299 4.0 10.0 0.00 0.00 0.00 71 1016.6
20260506232505 68 7 1.0 4.0 0.00 0.00 0.00 74 1016.2
20260506232001 66 5 0.0 9.0 0.00 0.00 0.00 76 1016.3
20260506231458 65 281 7.0 13.0 0.00 0.00 0.00 77 1016.6
20260506230956 65 294 7.0 15.0 0.00 0.00 0.00 74 1016.7
20260506230451 66 250 4.0 10.0 0.00 0.00 0.00 73 1016.4
20260506225948 68 320 6.0 12.0 0.00 0.00 0.00 70 1016.6
20260506225446 68 328 4.0 4.0 0.00 0.00 0.00 74 1016.7
20260506224943 66 238 2.0 9.0 0.00 0.00 0.00 76 1016.7
20260506224440 66 304 7.0 9.0 0.00 0.00 0.00 74 1016.8
20260506223936 66 28 2.0 9.0 0.00 0.00 0.00 74 1016.6
20260506223432 68 17 2.0 8.0 0.00 0.00 0.00 72 1016.8
20260506222929 66 357 2.0 8.0 0.00 0.00 0.00 74 1016.9
20260506222425 65 317 8.0 11.0 0.00 0.00 0.00 75 1016.7
20260506221923 65 221 3.0 13.0 0.00 0.00 0.00 73 1016.9
20260506221420 65 276 5.0 13.0 0.00 0.00 0.00 74 1016.9
20260506220918 66 301 8.0 11.0 0.00 0.00 0.00 73 1016.8
20260506220413 68 11 0.0 4.0 0.00 0.00 0.00 72 1016.9
20260506215910 66 308 3.0 14.0 0.00 0.00 0.00 71 1017.1
20260506215406 66 299 13.0 17.0 0.00 0.00 0.00 70 1017.0
20260506214901 68 259 9.0 11.0 0.00 0.00 0.00 69 1017.0
20260506214359 67 312 3.0 5.0 0.00 0.00 0.00 70 1017.1
20260506213856 67 349 1.0 7.0 0.00 0.00 0.00 71 1017.1
20260506213354 67 80 2.0 5.0 0.00 0.00 0.00 73 1017.2
20260506212851 65 310 6.0 12.0 0.00 0.00 0.00 73 1017.2
20260506212347 66 308 9.0 11.0 0.00 0.00 0.00 70 1017.2
20260506211842 67 331 2.0 9.0 0.00 0.00 0.00 70 1017.2
20260506211338 65 356 3.0 16.0 0.00 0.00 0.00 72 1017.2
20260506210835 65 272 5.0 12.0 0.00 0.00 0.00 72 1017.2
20260506210332 65 303 13.0 17.0 0.00 0.00 0.00 71 1017.4
20260506205829 67 254 7.0 11.0 0.00 0.00 0.00 70 1017.1
20260506205325 67 28 3.0 9.0 0.00 0.00 0.00 70 1017.2
20260506204822 65 102 4.0 13.0 0.00 0.00 0.00 72 1017.2
20260506204320 67 316 8.0 9.0 0.00 0.00 0.00 69 1017.2
20260506203817 66 258 3.0 12.0 0.00 0.00 0.00 69 1017.2
20260506203314 67 352 3.0 13.0 0.00 0.00 0.00 68 1017.4
20260506202811 66 19 3.0 10.0 0.00 0.00 0.00 71 1017.4
20260506202308 66 215 7.0 15.0 0.00 0.00 0.00 70 1017.5
20260506201804 66 324 4.0 11.0 0.00 0.00 0.00 70 1017.4
20260506201302 66 336 6.0 13.0 0.00 0.00 0.00 71 1017.4
20260506200759 65 325 2.0 14.0 0.00 0.00 0.00 72 1017.4
20260506200255 66 233 4.0 12.0 0.00 0.00 0.00 70 1017.6
20260506195751 67 261 6.0 6.0 0.00 0.00 0.00 71 1017.5
20260506195248 66 273 2.0 15.0 0.00 0.00 0.00 70 1017.7
20260506194745 65 192 4.0 13.0 0.00 0.00 0.00 73 1017.8
20260506194241 65 229 5.0 15.0 0.00 0.00 0.00 71 1017.7
20260506193740 65 326 12.0 15.0 0.00 0.00 0.00 71 1017.8
20260506193236 65 325 5.0 17.0 0.00 0.00 0.00 71 1017.8
20260506192732 65 290 7.0 12.0 0.00 0.00 0.00 68 1017.8
20260506192229 65 275 9.0 14.0 0.00 0.00 0.00 68 1018.1
20260506191726 66 190 0.0 9.0 0.00 0.00 0.00 66 1018.0
20260506191222 66 19 2.0 8.0 0.00 0.00 0.00 68 1018.0
20260506190720 66 355 2.0 5.0 0.00 0.00 0.00 68 1018.0
20260506190216 66 328 4.0 13.0 0.00 0.00 0.00 67 1018.1
20260506185713 66 217 5.0 9.0 0.00 0.00 0.00 67 1018.1
20260506185209 65 241 5.0 8.0 0.00 0.00 0.00 68 1017.9
20260506184707 65 324 3.0 10.0 0.00 0.00 0.00 68 1018.2
20260506184204 65 261 2.0 9.0 0.00 0.00 0.00 66 1018.3
20260506183701 65 286 8.0 11.0 0.00 0.00 0.00 68 1018.1
20260506183157 65 298 7.0 13.0 0.00 0.00 0.00 67 1018.4
20260506182654 65 304 4.0 9.0 0.00 0.00 0.00 68 1018.3
20260506182151 66 268 3.0 9.0 0.00 0.00 0.00 66 1018.4
20260506181649 65 344 1.0 13.0 0.00 0.00 0.00 67 1018.2
20260506181146 65 185 1.0 10.0 0.00 0.00 0.00 67 1018.5
20260506180643 64 250 5.0 11.0 0.00 0.00 0.00 67 1018.4
20260506180139 65 310 6.0 12.0 0.00 0.00 0.00 67 1018.5
20260506175636 65 244 4.0 9.0 0.00 0.00 0.00 67 1018.5
20260506175132 66 310 6.0 10.0 0.00 0.00 0.00 64 1018.3
20260506174631 66 211 6.0 8.0 0.00 0.00 0.00 66 1018.5
20260506174127 65 354 2.0 6.0 0.00 0.00 0.00 68 1018.4
20260506173625 66 258 3.0 6.0 0.00 0.00 0.00 67 1018.5
20260506173121 65 327 4.0 6.0 0.00 0.00 0.00 68 1018.6
20260506172619 64 346 4.0 6.0 0.00 0.00 0.00 69 1018.7
20260506172115 66 194 1.0 7.0 0.00 0.00 0.00 67 1018.7
20260506171613 66 130 0.0 6.0 0.00 0.00 0.00 68 1018.7
20260506171110 65 275 6.0 9.0 0.00 0.00 0.00 67 1018.6
20260506170608 64 278 5.0 7.0 0.00 0.00 0.00 69 1018.8
20260506170105 65 357 2.0 3.0 0.00 0.00 0.00 69 1018.6
20260506165603 64 280 5.0 9.0 0.00 0.00 0.00 70 1018.6
20260506165059 65 266 2.0 11.0 0.00 0.00 0.00 68 1018.6
20260506164556 64 0 0.0 4.0 0.00 0.00 0.00 69 1018.7
20260506164053 64 357 1.0 6.0 0.00 0.00 0.00 70 1018.6
20260506163549 64 324 2.0 4.0 0.00 0.00 0.00 70 1018.6
20260506163046 64 305 5.0 5.0 0.00 0.00 0.00 70 1018.5
20260506162542 63 60 2.0 4.0 0.00 0.00 0.00 73 1018.6
20260506162039 62 301 5.0 6.0 0.00 0.00 0.00 73 1018.7
20260506161537 62 293 5.0 7.0 0.00 0.00 0.00 72 1018.6
20260506161033 64 294 0.0 6.0 0.00 0.00 0.00 69 1018.6
20260506160531 65 1 2.0 3.0 0.00 0.00 0.00 69 1018.6
20260506160028 65 267 1.0 2.0 0.00 0.00 0.00 68 1018.4
20260506155526 65 150 0.0 2.0 0.00 0.00 0.00 70 1018.6
20260506153657 62 81 2.0 3.0 0.00 0.00 0.00 75 1018.5
20260506153154 61 118 0.0 2.0 0.00 0.00 0.00 76 1018.7
20260506152651 60 140 2.0 3.0 0.00 0.00 0.00 78 1018.5
20260506152149 60 174 0.0 2.0 0.00 0.00 0.00 78 1018.7